This is the latest recevied weather packets stored in our database for station/object Waldburg. If no packets are shown the sender has not sent any weather packets the latest 10 day(s).
| Time | Temp. | Humidity | Pressure | Rain* | Wind** | Luminosity | Snow |
|---|---|---|---|---|---|---|---|
| 1788134532 | 18.89° C | 77% | 1012 hPa | 0 mm | - | - | - |
| 1788132731 | 18.89° C | 77% | 1012.2 hPa | 0 mm | - | - | - |
| 1788130931 | 19.44° C | 75% | 1012.5 hPa | 0 mm | - | - | - |
| 1788129131 | 20° C | 73% | 1012.5 hPa | 0 mm | - | - | - |
| 1788127337 | 20° C | 72% | 1012.8 hPa | 0 mm | - | - | - |
| 1788125531 | 20.56° C | 72% | 1012.8 hPa | 0 mm | - | - | - |
| 1788123730 | 20.56° C | 70% | 1013.1 hPa | 0 mm | - | - | - |
| 1788121931 | 20.56° C | 69% | 1013.2 hPa | 0 mm | - | - | - |
| 1788120131 | 20.56° C | 70% | 1013.3 hPa | 0 mm | - | - | - |
| 1788118330 | 20.56° C | 70% | 1013.2 hPa | 0 mm | - | - | - |
| 1788116531 | 21.11° C | 69% | 1013.3 hPa | 0 mm | - | - | - |
| 1788114730 | 21.67° C | 68% | 1013.1 hPa | 0 mm | - | - | - |
| 1788112931 | 22.22° C | 67% | 1012.9 hPa | 0 mm | - | - | - |
| 1788111131 | 22.78° C | 67% | 1013 hPa | 0 mm | - | - | - |
| 1788109331 | 23.33° C | 63% | 1013.1 hPa | 0 mm | - | - | - |
| 1788107531 | 23.89° C | 62% | 1013 hPa | 0 mm | - | - | - |
| 1788105731 | 24.44° C | 60% | 1013.1 hPa | 0 mm | - | - | - |
| 1788103931 | 24.44° C | 57% | 1013.3 hPa | 0 mm | - | - | - |
| 1788102130 | 25° C | 58% | 1013.4 hPa | 0 mm | - | - | - |
| 1788100331 | 25° C | 58% | 1013.5 hPa | 0 mm | - | - | - |
| 1788098531 | 25° C | 56% | 1013.5 hPa | 0 mm | - | - | - |
| 1788096730 | 25° C | 55% | 1013.6 hPa | 0 mm | - | - | - |
| 1788094931 | 25.56° C | 56% | 1013.9 hPa | 0 mm | - | - | - |
| 1788093130 | 25.56° C | 54% | 1014.1 hPa | 0 mm | - | - | - |
| 1788091330 | 25.56° C | 57% | 1014.2 hPa | 0 mm | - | - | - |
* Rain since midnight (hover to see other rain measurements)
** Current wind speed in m/s (hover to see current wind gust speed)